Tracking 29892 objects as of 21-Nov-2024
HD Live streaming from Space Station
objects crossing your sky now

STARLINK-4457

Track STARLINK-4457 now!
10-day predictions


NORAD ID: 53663
Int'l Code: 2022-105R
Perigee: 567.8 km
Apogee: 572.5 km
Inclination: 97.7 °
Period: 95.9 minutes
Semi major axis: 6941 km
RCS: Unknown
Launch date: August 31, 2022
Source: United States (US)
Launch site: AIR FORCE WESTERN TEST RANGE (AFWTR)
Your satellite tracking list
Your tracking list is empty




NASA's NSSDC Master Catalog

Two Line Element Set (TLE):
1 53663U 22105R   24324.65981310  .00001655  00000-0  13340-3 0  9992
2 53663  97.6552 203.2671 0003397  88.3394 271.8219 15.01262220121967
Source of the keplerian elements: AFSPC